Location: Wapato
(46.4478°N, 120.4212°W)
Time: 23:11:16
(UTC+00:00)

Vanguard 1 Rocket - Pass Details

Date: 18 May 2026
Orbit: 656 x 4211 km, 34.3° (Epoch: 2 June)

Event Time Altitude Azimuth Distance (km) Brightness Sun altitude
Rises 00:13:48 0° 250° (WSW) 4,352 11.9 31.8°
Reaches altitude 10° 00:16:15 10° 244° (WSW) 3,693 11.8 31.4°
Maximum altitude 00:25:52 49° 173° (S) 2,802 10.2 29.8°
Drops below altitude 10° 00:43:53 10° 107° (ESE) 6,633 11.3 26.7°
Sets 00:50:12 0° 103° (ESE) 8,050 11.7 25.6°
